Temperature
4 4 4 5 5 5 5 5 5 4 5 6 6 7 7 7 7 7 8 8 8 8 8 8 8 8 8 8 8 8 7 7 7 6 6 5 5 4
4 4 4 4 4 4 4 5 5 5 4 5 6 7 7 7 7 7 7 7 8 8 8 8 8 8 8 8 7 7 7 7 6 6 5 5 4 4
3 3 4 4 4 4 4 4 5 5 5 5 6 6 6 7 7 7 7 7 7 7 8 8 8 8 7 7 7 7 7 6 6 5 5 5 4 3
3 3 3 4 4 4 4 4 4 4 5 5 5 5 6 6 6 6 6 7 7 7 7 7 7 7 7 7 7 6 6 6 6 5 5 4 4 3
3 3 3 3 3 3 4 4 4 4 4 4 5 5 5 6 6 6 6 6 6 7 7 7 7 7 6 6 6 6 6 5 5 5 4 4 3 3
3 3 3 3 3 3 3 4 4 4 4 4 4 5 5 5 5 5 5 6 6 6 6 6 6 6 6 6 6 6 5 5 5 4 4 3 3 2
2 3 3 3 3 3 3 3 3 4 4 4 4 4 4 5 5 5 5 5 5 5 6 6 5 5 5 5 5 5 5 4 4 4 3 3 2 2
2 2 2 3 3 3 3 3 3 4 4 4 4 4 5 5 5 5 5 4 4 5 5 5 5 5 5 5 5 4 4 4 4 3 3 2 2 2
2 2 2 2 3 3 3 3 4 4 4 4 4 4 4 5 5 4 5 4 4 4 4 4 4 4 4 4 4 4 4 3 3 3 2 2 2 1
2 2 2 2 2 3 3 3 3 4 4 4 4 4 5 5 5 4 4 4 4 4 4 3 3 3 3 3 3 3 3 3 3 2 2 2 1 1
1 2 2 2 2 3 3 3 3 3 3 4 4 4 4 4 4 4 4 4 3 3 3 3 3 3 3 3 3 3 2 2 2 2 1 1 1 0
1 1 2 2 2 2 2 2 3 3 3 3 3 3 4 4 4 4 4 4 3 3 3 3 2 2 2 2 2 2 2 2 1 1 1 1 0 0
1 1 1 2 2 2 2 3 3 3 3 3 3 3 3 3 3 3 3 4 4 3 3 3 2 2 2 1 1 1 1 1 1 1 0 0 -0 -0
0 1 1 2 2 2 2 2 2 2 2 2 2 3 3 3 3 3 3 3 3 3 3 3 3 2 2 2 1 1 1 1 1 0 0 -0 -1 -1
0 0 1 1 2 2 2 2 2 2 2 2 2 2 3 3 3 3 2 2 2 2 2 2 2 2 2 2 1 1 0 -0 -0 -0 -0 -1 -1 -1
-0 0 1 1 1 1 2 2 2 2 2 2 2 2 2 2 2 2 2 2 2 2 2 2 2 2 2 2 1 1 0 -0 -1 -1 -1 -1 -1 -2
-0 0 0 1 1 1 1 2 2 2 2 2 2 2 2 2 2 2 2 2 2 1 1 1 1 1 1 1 1 0 -0 -1 -1 -1 -1 -2 -2 -2
0 0 0 0 1 1 1 1 1 1 1 1 1 1 2 2 2 1 1 2 1 1 1 1 1 0 0 -0 -0 -0 -1 -1 -1 -2 -2 -2 -2 -3
0 -0 -0 0 0 1 1 1 1 1 1 1 1 1 1 1 1 1 1 1 1 1 1 1 0 1 0 -1 -1 -1 -1 -1 -2 -2 -2 -2 -3 -3
-0 -0 -0 -0 0 1 1 1 1 1 1 1 1 1 1 1 1 1 1 1 1 1 0 0 0 0 1 0 -1 -2 -2 -2 -2 -2 -2 -3 -3 -3
-1 -1 -1 -0 -0 0 1 1 1 1 1 1 1 1 1 1 1 1 1 1 1 0 0 0 0 -0 -0 -1 -1 -2 -2 -2 -2 -2 -3 -3 -3 -3
-1 -1 -1 -0 -0 0 0 0 0 0 0 0 0 1 1 1 1 1 1 0 0 0 -0 -0 -1 -1 -1 -1 -1 -2 -2 -3 -3 -3 -3 -3 -3 -4
-1 -1 -1 -1 -0 -0 0 0 0 0 0 0 0 0 0 0 1 0 0 0 -0 -0 -0 -1 -1 -1 -1 -1 -2 -2 -3 -3 -3 -3 -4 -4 -4 -4
Wind_Speed
11 11 10 9 8 8 7 7 7 8 9 5 4 6 6 7 10 10 10 12 13 13 13 13 13 13 12 12 11 11 9 8 9 9 8 8 7 7
10 11 11 9 8 8 8 8 7 8 9 6 5 5 6 6 10 10 9 12 13 13 12 13 12 12 12 12 11 10 9 8 9 9 9 8 7 7
11 12 12 10 9 8 8 8 8 7 9 8 5 5 6 7 6 7 8 8 10 12 12 13 12 11 12 12 11 10 10 9 9 9 9 8 6 6
12 12 12 10 11 9 9 9 8 7 7 9 6 5 6 7 6 6 5 6 8 10 11 12 12 11 12 12 11 11 10 9 9 8 7 7 6 5
12 12 12 11 11 9 9 9 8 7 7 8 8 5 5 5 5 5 4 4 5 8 10 11 11 11 12 12 11 11 10 9 9 8 7 6 5 5
11 11 12 12 13 11 10 9 8 7 7 7 7 6 5 4 5 5 4 3 3 3 5 6 8 9 11 11 11 11 10 9 9 8 7 6 5 4
10 11 11 13 15 13 10 9 8 7 7 7 7 5 5 5 6 4 4 3 2 2 3 3 4 4 5 8 10 10 10 9 9 8 7 6 5 3
9 9 10 12 14 15 16 15 13 11 10 8 7 8 7 6 4 5 5 3 2 2 3 2 3 3 3 4 8 10 10 9 9 8 7 6 5 3
7 7 8 9 11 9 11 12 12 14 14 10 10 10 8 7 6 6 6 4 2 3 3 1 2 2 2 4 8 9 9 9 8 8 7 6 5 3
7 7 8 8 9 9 7 7 8 8 9 8 8 8 7 7 7 6 5 3 2 1 2 2 1 1 1 2 7 9 9 9 8 8 7 6 5 3
7 7 8 8 10 10 7 7 6 5 4 6 6 6 6 7 8 6 6 6 2 1 1 2 1 1 1 1 3 7 7 8 8 8 7 6 5 4
5 5 8 9 9 9 8 7 7 6 4 3 4 3 4 6 8 7 7 7 3 2 2 2 3 2 1 1 1 3 4 6 7 7 7 7 6 4
4 4 5 9 9 9 8 7 8 6 5 4 3 3 3 4 4 3 4 5 4 3 4 3 3 2 2 2 1 2 2 3 4 5 6 6 5 4
4 4 4 6 7 7 6 6 7 6 4 4 4 3 4 4 4 4 5 4 3 4 6 5 3 4 4 3 2 2 2 2 4 4 3 4 4 3
3 6 6 5 4 4 5 6 6 5 5 5 5 3 4 5 5 5 6 6 6 5 4 3 5 4 4 4 4 3 2 2 2 3 3 2 2 2
4 4 4 3 2 2 3 3 4 5 6 5 5 4 5 5 5 5 5 5 5 3 4 5 5 6 4 5 6 5 4 3 3 3 3 2 2 1
3 2 2 1 0 1 2 2 3 4 5 5 6 5 6 6 5 4 4 4 4 4 3 5 7 8 6 5 5 5 5 4 4 3 3 2 1 1
3 2 1 2 1 1 2 3 3 4 5 5 6 6 6 6 5 5 5 5 6 5 5 5 6 6 5 6 5 6 4 3 3 3 3 3 1 1
1 1 2 1 1 1 2 3 3 4 5 5 6 6 6 6 6 6 6 6 6 6 5 5 5 5 5 3 2 3 4 4 4 3 2 2 1 1
1 1 1 1 1 1 2 3 4 4 5 6 6 6 7 7 7 7 6 7 7 6 5 4 3 4 5 5 4 2 3 5 4 3 2 2 1 1
2 2 1 1 1 1 2 3 4 5 6 6 6 6 6 7 7 7 7 9 7 6 6 4 3 7 6 6 6 3 2 3 3 3 3 3 2 1
1 1 1 1 1 1 2 3 4 5 6 6 6 5 5 6 7 8 7 7 6 6 6 5 5 5 4 6 7 6 4 4 5 6 4 2 2 2
2 1 1 1 1 1 2 3 5 5 5 6 6 5 6 6 6 6 7 7 7 8 8 7 5 4 5 7 8 7 7 5 4 4 4 5 4 4
Wind_Direction
235 235 236 240 233 231 228 221 230 257 268 252 237 222 214 208 213 210 213 224 227 226 224 219 217 215 215 215 209 209 211 213 207 205 213 227 241 255
235 235 237 240 235 230 226 227 228 237 258 258 253 235 221 231 223 211 213 225 223 221 221 214 211 207 207 205 200 202 203 207 205 205 212 223 236 251
241 237 237 234 234 233 228 228 230 229 248 268 259 232 224 221 221 207 207 213 211 213 216 210 205 203 201 198 197 198 199 202 204 205 214 223 234 248
242 237 239 237 232 231 229 228 229 226 233 253 258 238 236 215 211 209 217 220 207 209 212 207 202 200 197 194 194 194 195 199 200 201 209 217 228 241
243 236 237 234 235 233 231 231 229 231 226 234 247 244 243 218 204 219 221 221 207 205 203 197 194 195 192 190 191 188 188 192 193 194 201 210 223 239
245 238 236 234 234 231 234 230 226 226 226 227 234 236 236 213 198 204 219 216 213 200 191 182 182 187 186 186 186 184 184 186 188 190 193 197 206 225
249 241 237 238 239 235 236 226 218 220 223 224 226 237 234 207 209 201 209 201 210 190 164 166 161 167 172 180 182 180 180 182 184 186 188 187 184 189
253 246 238 238 243 242 241 237 228 222 219 219 226 223 231 215 210 194 187 188 224 169 150 167 153 170 173 177 176 174 175 175 177 177 176 173 166 168
253 248 246 242 244 229 234 238 237 237 233 223 220 221 222 208 191 195 192 193 215 173 141 201 154 164 173 178 171 169 168 168 170 168 164 159 153 157
254 249 244 241 236 225 220 228 232 234 232 227 220 224 219 202 194 197 183 144 97 104 144 174 171 158 146 166 163 161 163 164 165 160 155 150 146 144
259 254 243 238 238 233 225 226 229 238 233 208 198 200 200 194 180 165 164 157 172 204 122 139 149 108 92 136 151 151 155 158 158 154 148 142 133 118
265 256 249 243 241 244 227 215 217 221 199 169 162 173 190 182 182 186 179 172 171 186 177 143 151 132 115 65 108 128 137 150 148 143 137 131 121 100
274 270 261 251 247 247 236 217 210 205 185 176 174 170 167 162 160 160 166 173 178 185 172 150 144 130 142 139 79 93 116 131 132 127 123 122 120 113
283 278 269 265 250 241 232 204 193 192 178 166 165 168 164 157 146 132 120 106 116 160 166 154 149 161 147 132 133 105 90 110 119 112 103 111 102 101
307 295 286 280 262 236 201 189 186 183 170 169 172 173 159 151 139 123 109 99 84 90 126 143 146 151 142 141 143 141 125 102 107 111 104 99 99 94
317 314 311 302 282 209 183 182 185 178 169 168 164 156 146 143 146 145 141 129 107 79 63 84 127 140 132 127 139 142 135 141 133 111 102 93 76 78
314 321 326 314 189 169 167 165 163 158 158 157 156 152 147 144 143 140 143 135 134 141 107 77 78 85 87 121 128 130 126 122 136 128 113 100 67 30
317 327 329 329 284 190 161 150 152 156 157 154 150 150 149 148 143 137 138 138 137 138 131 127 120 101 77 50 65 127 124 127 129 122 118 117 97 340
350 331 319 320 326 152 149 148 148 149 147 146 147 149 146 144 145 145 144 139 136 136 138 144 144 134 128 122 36 62 134 135 127 119 115 123 167 252
3 329 315 326 1 132 138 138 139 137 139 141 144 147 147 147 148 150 151 145 142 137 135 137 143 144 143 145 136 84 111 139 139 133 116 91 63 349
347 343 337 340 17 115 126 135 140 140 140 142 144 146 148 147 147 148 145 142 139 141 145 145 127 115 105 103 104 94 67 84 122 138 131 111 83 43
343 354 352 360 33 113 127 136 137 137 139 139 143 145 146 145 145 144 144 145 141 137 129 122 120 114 110 120 124 124 108 81 76 82 89 123 148 160
353 16 30 32 55 115 127 132 138 139 142 144 145 144 142 138 137 137 137 136 133 130 127 124 114 99 105 118 124 124 118 109 92 79 54 53 75 90
Height
1402 1404 1405 1406 1408 1409 1411 1412 1413 1411 1409 1409 1412 1414 1417 1419 1421 1423 1424 1427 1428 1430 1432 1434 1436 1439 1441 1443 1444 1446 1448 1449 1449 1450 1450 1451 1451 1451
1394 1395 1397 1398 1400 1401 1403 1405 1406 1406 1404 1403 1405 1407 1410 1412 1415 1416 1418 1420 1422 1424 1426 1428 1430 1433 1435 1437 1438 1441 1443 1444 1444 1444 1445 1446 1445 1445
1386 1387 1388 1390 1392 1394 1395 1397 1399 1400 1399 1397 1399 1402 1404 1406 1408 1410 1412 1413 1415 1417 1420 1422 1424 1427 1429 1431 1433 1435 1437 1439 1439 1439 1440 1441 1440 1440
1377 1378 1380 1382 1384 1386 1388 1389 1391 1392 1394 1392 1393 1395 1397 1399 1401 1403 1405 1407 1409 1411 1414 1416 1418 1421 1424 1426 1428 1430 1432 1433 1434 1434 1435 1436 1436 1436
1369 1370 1372 1374 1376 1378 1380 1381 1383 1385 1388 1388 1387 1390 1391 1393 1395 1397 1399 1401 1403 1405 1408 1410 1413 1415 1418 1421 1423 1424 1426 1428 1429 1429 1430 1431 1431 1431
1362 1363 1364 1367 1368 1370 1372 1374 1376 1379 1381 1382 1382 1383 1385 1387 1389 1390 1392 1395 1397 1399 1402 1405 1407 1410 1413 1415 1418 1419 1421 1423 1423 1425 1425 1426 1426 1426
1354 1355 1357 1359 1361 1363 1365 1367 1369 1372 1374 1375 1376 1377 1379 1381 1383 1384 1387 1389 1391 1394 1397 1399 1403 1405 1407 1410 1413 1415 1417 1418 1419 1420 1421 1421 1422 1422
1347 1348 1350 1352 1354 1356 1358 1361 1363 1365 1366 1368 1369 1371 1372 1375 1378 1379 1382 1384 1386 1390 1392 1395 1398 1400 1403 1406 1408 1410 1412 1414 1415 1416 1417 1417 1418 1418
1341 1342 1344 1345 1348 1349 1351 1353 1356 1358 1361 1362 1363 1365 1367 1369 1372 1375 1377 1380 1382 1385 1388 1390 1393 1396 1399 1402 1404 1406 1408 1410 1411 1412 1413 1413 1414 1414
1337 1337 1338 1339 1341 1342 1344 1346 1348 1351 1354 1356 1358 1359 1362 1365 1368 1371 1373 1375 1378 1382 1386 1387 1389 1392 1395 1398 1401 1403 1405 1406 1408 1409 1409 1410 1411 1411
1331 1332 1333 1334 1335 1337 1339 1340 1342 1344 1348 1350 1352 1354 1357 1360 1363 1367 1369 1372 1374 1377 1381 1384 1386 1389 1392 1395 1397 1400 1401 1403 1404 1405 1406 1407 1408 1408
1326 1326 1327 1328 1329 1331 1333 1334 1336 1338 1342 1344 1347 1349 1352 1355 1359 1363 1365 1368 1371 1374 1377 1381 1383 1386 1389 1392 1395 1397 1399 1400 1401 1403 1404 1404 1405 1405
1321 1321 1321 1323 1324 1325 1327 1329 1330 1333 1336 1339 1341 1344 1347 1351 1355 1359 1362 1366 1368 1371 1374 1377 1380 1383 1386 1389 1392 1394 1396 1398 1399 1400 1401 1402 1403 1404
1316 1316 1316 1317 1318 1319 1321 1323 1326 1329 1332 1334 1337 1340 1343 1347 1351 1355 1359 1363 1366 1369 1372 1375 1377 1380 1383 1385 1389 1392 1394 1395 1396 1398 1400 1401 1402 1402
1313 1312 1312 1312 1313 1314 1316 1319 1322 1324 1327 1329 1332 1336 1341 1345 1349 1353 1357 1360 1364 1367 1370 1373 1376 1378 1381 1382 1385 1389 1391 1393 1395 1397 1398 1399 1400 1400
1310 1309 1308 1307 1308 1310 1312 1314 1317 1320 1323 1326 1330 1334 1339 1343 1347 1350 1354 1357 1361 1364 1367 1371 1374 1376 1379 1381 1384 1386 1389 1391 1394 1395 1397 1398 1399 1399
1308 1306 1305 1305 1305 1307 1309 1311 1314 1317 1320 1324 1328 1332 1336 1340 1344 1348 1352 1355 1358 1361 1365 1369 1372 1375 1378 1381 1383 1385 1388 1390 1393 1394 1396 1397 1398 1398
1307 1304 1304 1304 1304 1305 1306 1309 1312 1315 1318 1322 1326 1330 1334 1338 1342 1346 1350 1354 1357 1360 1364 1367 1371 1374 1377 1380 1383 1385 1387 1390 1392 1394 1395 1396 1397 1397
1305 1304 1303 1303 1303 1304 1306 1308 1311 1314 1317 1321 1324 1328 1333 1337 1341 1345 1348 1352 1356 1359 1363 1366 1369 1372 1375 1378 1383 1385 1387 1389 1391 1393 1395 1396 1396 1397
1304 1303 1303 1303 1303 1304 1306 1308 1311 1314 1317 1320 1324 1328 1332 1336 1340 1344 1347 1351 1355 1359 1362 1366 1368 1371 1374 1377 1380 1384 1387 1389 1390 1392 1394 1395 1396 1397
1303 1303 1302 1302 1303 1305 1306 1309 1311 1314 1317 1321 1324 1328 1332 1335 1339 1343 1347 1351 1354 1358 1361 1365 1368 1371 1374 1377 1380 1384 1387 1389 1391 1392 1393 1394 1395 1396
1303 1303 1303 1303 1304 1306 1307 1310 1312 1315 1318 1321 1325 1328 1332 1335 1339 1343 1346 1350 1354 1358 1361 1365 1368 1371 1374 1376 1379 1383 1386 1389 1391 1393 1395 1396 1396 1396
1304 1304 1304 1305 1305 1307 1308 1310 1313 1315 1318 1322 1325 1328 1332 1336 1339 1343 1347 1350 1354 1357 1361 1364 1368 1371 1374 1376 1380 1383 1386 1389 1391 1393 1395 1396 1397 1398